Regional Weather Roundup
Issued by NWS

Home | Current Version | Previous Version | Graphics & Text | Print | Product List | Glossary On
Versions: 1 2 3 4 5 6 7 8 9 10 11 12 13 14 15 16 17 18 19 20 21 22 23 24 25 26 27 28 29 30 31 32 33 34 35 36 37 38 39 40 41 42 43 44 45 46 47 48 49 50
000
ASUS43 KOAX 271410
RWRNE

WEATHER ROUNDUP FOR NEBRASKA
NATIONAL WEATHER SERVICE OMAHA NE
900 AM CDT FRI MAR 27 2015

NOTES: SATELLITE DATA IS BEING USED TO AUGMENT CLOUD COVER ABOVE
       12000 FEET.
       "FAIR" INDICATES FEW OR NO CLOUDS BELOW 12,000 FEET WITH NO
       SIGNIFICANT WEATHER AND/OR OBSTRUCTIONS TO VISIBILITY.

  * THESE STATIONS DO NOT REPORT WEATHER SUCH AS RAIN...SNOW OR FOG.

NEZ001>004-019>022-054>056-271500-
NEBRASKA PANHANDLE

CITY           SKY/WX    TMP DP  RH WIND       PRES   REMARKS
SCOTTSBLUFF    CLOUDY    39  37  92 NW6       30.14S WCI  35
ALLIANCE       CLOUDY    39  37  92 SW8       30.10F WCI  33
CHADRON        CLOUDY    43  39  86 SW6       30.08F
KIMBALL        PTSUNNY   37  32  81 SW6       30.14S WCI  33
SIDNEY         MOSUNNY   36  32  85 SW10      30.15F WCI  28
$$

NEZ057>060-069>072-079>082-271500-
SOUTHWEST NEBRASKA

CITY           SKY/WX    TMP DP  RH WIND       PRES   REMARKS
NORTH PLATTE   CLOUDY    32  28  85 S7        30.21S WCI  26
IMPERIAL         N/A     33  30  88 S8        30.20F WCI  26
LEXINGTON      CLOUDY    34  26  71 SE6       30.24R WCI  29
MCCOOK         CLOUDY    33  30  88 S8        30.24F WCI  26
OGALLALA       CLOUDY    34  33  94 SW9       30.18S WCI  27
$$

NEZ005>010-023>029-035>040-094-271500-
NORTH CENTRAL NEBRASKA

CITY           SKY/WX    TMP DP  RH WIND       PRES   REMARKS
VALENTINE      CLOUDY    34  28  79 S8        30.15F WCI  27
AINSWORTH      CLOUDY    33  28  82 S9        30.17F WCI  26
BROKEN BOW     CLOUDY    33  26  75 SE3       30.22R
O`NEILL        MOSUNNY   26  22  84 SE5       30.24F WCI  20
ORD            CLOUDY    28  22  78 SE8       30.24F WCI  20
THEDFORD       CLOUDY    33  29  85 S8        30.18F WCI  27
$$

NEZ041-046>049-061>064-073>077-083>087-271500-
SOUTH CENTRAL NEBRASKA

CITY           SKY/WX    TMP DP  RH WIND       PRES   REMARKS
GRAND ISLAND   MOSUNNY   27  21  78 E7        30.28S WCI  19
AURORA         SUNNY     28  22  81 NE5       30.28S WCI  22
HASTINGS       FAIR      29  22  75 E6        30.27S WCI  23
HEBRON         SUNNY     29  21  71 NE7       30.30R WCI  22
HOLDREGE       CLOUDY    33  24  71 E6        30.24S WCI  27
KEARNEY *      CLOUDY    30  25  80 E8        30.26S WCI  23
YORK           SUNNY     27  23  86 NE7       30.28F WCI  19
$$

NEZ011>018-030>034-042>045-271500-
NORTHEAST NEBRASKA

CITY           SKY/WX    TMP DP  RH WIND       PRES   REMARKS
NORFOLK        SUNNY     25  19  78 W3        30.27F
ALBION         SUNNY     25  20  83 CALM      30.27S
BLAIR          SUNNY     27  18  68 N7        30.28S WCI  20
COLUMBUS *     SUNNY     25  12  58 N5        30.30F WCI  19
FREMONT        SUNNY     27  21  76 CALM      30.30F
TEKAMAH        SUNNY     27  17  66 NW10G26   30.31S WCI  17
WAYNE          SUNNY     22  17  79 CALM      30.29F
$$

NEZ050>053-065>068-078-088>093-271500-
SOUTHEAST NEBRASKA

CITY           SKY/WX    TMP DP  RH WIND       PRES   REMARKS
LINCOLN        SUNNY     28  22  78 N8        30.32S WCI  20
OMAHA EPPLEY   MOSUNNY   27  21  78 N9        30.31S WCI  18
BEATRICE       SUNNY     29  22  76 N7        30.31R WCI  22
FALLS CITY     SUNNY     29  20  69 N9        30.29S WCI  20
NEBRASKA CITY  SUNNY     28  20  73 N7        30.30S WCI  21
PLATTSMOUTH    SUNNY     27  20  75 NW5       30.30S WCI  21
$$

NEZ044-045-051>053-067-271500-
OMAHA AREA

CITY           SKY/WX    TMP DP  RH WIND       PRES   REMARKS
OMAHA EPPLEY   MOSUNNY   27  21  78 N9        30.31S WCI  18
BLAIR          SUNNY     27  18  68 N7        30.28S WCI  20
FREMONT        SUNNY     27  21  76 CALM      30.30F
MILLARD        SUNNY     28  17  64 NW5       30.31S WCI  23
OFFUTT AFB     SUNNY     28  19  67 NW5       30.30S WCI  23
PLATTSMOUTH    SUNNY     27  20  75 NW5       30.30S WCI  21
WAHOO          FAIR      27  20  77 N7        30.31S WCI  19
$$


USA.gov is the U.S. government's official web portal to all federal, state and local government web resources and services.